Voltar ao catálogo

NORSAT 2

AtivoCiênciaSSO
NORAD 42828·PAYLOAD·🇳🇴 Norway

Lançado Jul 14, 2017 de Baikonur Cosmodrome

Loading…

Próximas Passagens (próximas 24 horas)

TLE

AtualizadoSource: Space-Track

Época: Sep 14, 2026, 11:10 UTC

1 42828U 17042D   26257.46532758  .00007816  00000-0  33025-3 0  9998
2 42828  97.4105  69.6328 0010525  96.9280 263.3155 15.23465714501327

Acompanhe NORSAT 2 em tempo real com AllMySat

Download on the App Store